Date,TemperatureHighF,TemperatureAvgF,TemperatureLowF,DewpointHighF,DewpointAvgF,DewpointLowF,HumidityHigh,HumidityAvg,HumidityLow,PressureMaxIn,PressureMinIn,WindSpeedMaxMPH,WindSpeedAvgMPH,GustSpeedMaxMPH,PrecipitationSumIn
2013-1-1,37,23,18,16,3,-11,81,45,21,0.00,40.00,2,0,7,0.00
2013-1-2,40,29,23,3,-7,-24,30,21,8,0.00,40.00,9,1,15,0.00
2013-1-3,37,32,27,8,0,-4,44,26,18,0.00,40.00,13,7,33,0.00
2013-1-4,35,29,26,29,23,8,95,77,44,0.00,40.00,7,2,15,0.00
2013-1-5,34,30,26,22,17,13,75,58,46,0.00,40.00,12,7,28,0.00
2013-1-6,27,25,21,24,20,11,95,83,58,0.00,40.00,7,3,18,0.00
2013-1-7,31,27,24,30,24,9,97,87,48,0.00,40.00,10,7,22,0.00
2013-1-8,32,29,24,32,28,23,98,95,90,0.00,40.00,14,7,23,0.00
2013-1-9,33,28,17,29,25,15,94,88,78,0.00,40.00,18,12,38,0.00
2013-1-10,17,14,12,15,11,9,90,88,87,0.00,40.00,4,1,11,0.00
2013-1-11,13,8,1,10,4,-3,87,85,81,0.00,40.00,3,0,11,0.00
2013-1-12,17,6,0,14,2,-4,89,83,81,0.00,40.00,0,0,0,0.00
2013-1-13,14,5,0,10,1,-5,84,82,80,0.00,40.00,0,0,0,0.00
2013-1-14,23,15,5,21,12,1,93,87,83,0.00,40.00,3,1,8,0.00
2013-1-15,37,29,23,33,19,9,93,70,36,0.00,40.00,5,1,15,0.00
2013-1-16,45,33,29,14,8,3,51,34,25,0.00,40.00,5,3,12,0.00
2013-1-17,50,37,33,11,5,2,28,26,20,0.00,40.00,5,4,12,0.06
2013-1-18,46,38,33,10,3,-5,29,23,18,0.00,40.00,7,5,15,0.03
2013-1-19,49,36,33,2,-3,-6,22,18,12,0.00,40.00,6,3,14,0.01
2013-1-20,54,38,32,12,4,-3,31,23,13,0.00,40.00,8,1,16,0.07
2013-1-21,55,41,37,9,-6,-29,28,14,4,0.00,40.00,8,6,15,0.04
2013-1-22,55,43,39,6,-4,-27,23,15,4,0.00,40.00,12,7,23,0.01
2013-1-23,40,36,29,27,11,-1,93,41,19,0.00,40.00,22,14,41,0.00
2013-1-24,40,31,26,28,26,24,96,83,53,0.00,40.00,13,6,27,0.04
2013-1-25,35,32,31,32,31,25,98,93,74,0.00,40.00,10,6,20,0.02
2013-1-26,32,25,16,32,24,13,98,94,89,0.00,40.00,11,3,25,0.02
2013-1-27,21,19,17,19,17,15,92,90,89,0.00,40.00,4,2,12,0.00
2013-1-28,21,19,17,19,17,15,92,91,89,0.00,40.00,4,3,10,0.00
2013-1-29,26,23,21,25,22,19,95,93,92,0.00,40.00,4,2,13,0.00
2013-1-30,31,28,25,31,27,24,98,96,94,0.00,40.00,1,0,5,0.00
2013-1-31,33,30,29,32,30,28,98,98,97,0.00,40.00,0,0,0,0.00
2013-2-1,44,29,23,41,28,20,98,95,89,0.00,40.00,0,0,3,0.00
2013-2-2,52,36,23,28,12,2,89,40,23,0.00,40.00,8,2,20,0.18
2013-2-3,43,33,27,24,17,6,77,53,31,0.00,40.00,8,5,19,0.02
2013-2-4,39,32,28,27,21,15,82,63,46,0.00,40.00,7,5,16,0.01
2013-2-5,39,32,24,27,20,15,95,66,40,0.00,40.00,9,6,18,0.00
2013-2-6,32,26,23,24,19,12,94,76,52,0.00,40.00,17,7,34,0.00
2013-2-7,28,24,18,24,20,16,92,83,65,0.00,40.00,17,7,38,0.00
2013-2-8,23,19,16,20,17,14,91,90,88,0.00,40.00,5,2,16,0.00
2013-2-9,27,20,17,23,18,15,93,89,79,0.00,40.00,4,2,14,0.00
2013-2-10,28,21,18,24,18,16,95,90,80,0.00,40.00,2,0,10,0.00
2013-2-11,40,25,16,24,19,10,96,80,53,0.00,40.00,5,1,12,0.04
2013-2-12,31,26,23,28,24,21,96,94,90,0.00,40.00,6,3,13,0.01
2013-2-13,31,27,24,28,26,23,96,94,90,0.00,40.00,6,4,15,0.00
2013-2-14,33,27,20,28,24,18,97,90,79,0.00,40.00,4,0,9,0.00
2013-2-15,52,35,25,34,27,21,97,74,47,0.00,40.00,8,1,21,0.34
2013-2-16,45,32,21,26,24,19,95,73,46,0.00,40.00,9,7,26,0.08
2013-2-17,32,21,16,26,18,14,92,89,79,0.00,40.00,4,1,13,0.02
2013-2-18,31,23,18,17,13,10,87,67,47,0.00,40.00,14,8,35,0.00
2013-2-19,24,21,15,20,18,13,92,87,79,0.00,40.00,15,3,32,0.00
2013-2-20,27,19,15,20,15,12,92,87,69,0.00,40.00,3,0,11,0.00
2013-2-21,23,19,16,20,17,13,92,90,88,0.00,40.00,6,3,17,0.00
2013-2-22,28,24,20,27,22,18,95,93,91,0.00,40.00,11,6,24,0.00
2013-2-23,21,18,15,19,16,12,92,90,88,0.00,40.00,6,3,24,0.00
2013-2-24,37,22,15,34,19,12,91,89,86,0.00,40.00,7,2,15,0.01
2013-2-25,25,21,16,21,19,13,93,90,86,0.00,40.00,13,7,28,0.01
2013-2-26,32,20,15,25,16,12,89,84,73,0.00,40.00,7,2,13,0.00
2013-2-27,38,27,21,20,17,11,77,65,47,0.00,40.00,11,7,18,0.00
2013-2-28,34,31,26,34,29,20,98,94,75,0.00,40.00,7,5,18,0.00
2013-3-1,47,37,32,37,31,25,99,80,52,0.00,40.00,7,4,14,0.73
2013-3-2,45,38,30,32,28,20,98,68,47,0.00,40.00,10,6,23,0.21
2013-3-3,30,21,14,29,19,11,98,89,80,0.00,40.00,8,3,15,0.04
2013-3-4,35,22,12,17,9,2,89,61,36,0.00,40.00,12,5,26,0.00
2013-3-5,33,30,23,24,17,7,74,59,49,0.00,40.00,18,12,35,0.00
2013-3-6,37,29,21,28,23,18,93,81,50,0.00,40.00,16,10,33,0.00
2013-3-7,38,26,19,20,16,10,92,68,31,0.00,40.00,7,3,19,0.07
2013-3-8,41,27,20,19,14,7,86,60,36,0.00,40.00,5,1,13,0.08
2013-3-9,41,27,18,23,13,0,90,57,31,0.00,40.00,4,2,10,0.06
2013-3-10,41,31,23,31,13,0,98,54,18,0.00,40.00,7,5,18,0.02
2013-3-11,35,31,29,33,30,28,98,96,90,0.00,40.00,7,2,18,0.00
2013-3-12,43,36,30,39,32,27,99,85,63,0.00,40.00,10,6,20,0.40
2013-3-13,52,43,37,27,21,10,65,43,20,0.00,40.00,9,6,17,0.02
2013-3-14,51,44,38,29,24,21,71,46,30,0.00,40.00,14,8,31,0.00
2013-3-15,47,36,30,32,29,25,98,77,42,0.00,40.00,7,3,13,0.00
2013-3-16,39,30,21,29,27,19,98,87,57,0.00,40.00,13,5,25,0.00
2013-3-17,23,18,16,20,16,13,92,89,86,0.00,40.00,10,7,25,0.00
2013-3-18,32,22,16,27,18,13,90,86,73,0.00,40.00,9,5,18,0.00
2013-3-19,39,29,17,20,3,-17,80,36,15,0.00,40.00,24,8,46,0.00
2013-3-20,37,31,20,34,28,18,98,90,58,0.00,40.00,21,12,46,0.26
2013-3-21,24,18,14,22,15,11,92,89,86,0.00,40.00,9,6,20,0.01
2013-3-22,26,17,13,23,14,10,89,88,86,0.00,40.00,5,2,14,0.00
2013-3-23,32,18,8,28,15,5,91,86,80,0.00,40.00,1,0,7,0.00
2013-3-24,38,23,11,26,15,7,88,72,44,0.00,40.00,5,1,8,0.00
2013-3-25,42,30,23,22,18,12,75,60,39,0.00,40.00,6,3,17,0.00
2013-3-26,44,34,28,30,27,22,90,76,58,0.00,40.00,5,0,9,0.21
2013-3-27,46,36,32,32,28,25,94,75,55,0.00,40.00,8,4,18,0.37
2013-3-28,54,42,33,34,31,22,98,69,33,0.00,40.00,5,2,12,0.41
2013-3-29,47,37,32,37,33,29,98,86,52,0.00,40.00,3,0,10,0.13
2013-3-30,56,42,31,32,22,-100,84,51,17,0.00,40.00,4,1,14,0.06
2013-3-31,61,47,36,30,23,18,53,40,26,0.00,40.00,2,0,10,0.00
2013-4-1,58,46,37,35,28,21,79,51,34,0.00,40.00,4,2,11,0.00
2013-4-2,51,40,32,34,32,28,98,73,46,0.00,40.00,6,2,13,0.00
2013-4-3,54,42,32,33,30,25,96,65,37,0.00,40.00,6,2,13,0.00
2013-4-4,47,42,32,35,31,28,98,67,55,0.00,40.00,19,10,37,0.00
2013-4-5,41,34,32,35,33,29,99,93,75,0.00,40.00,8,4,16,0.52
2013-4-6,36,32,30,32,31,29,98,95,85,0.00,40.00,9,5,18,0.01
2013-4-7,34,29,23,32,27,22,98,92,68,0.00,40.00,13,7,31,0.01
2013-4-8,31,25,21,26,22,19,95,90,77,0.00,40.00,4,2,12,0.01
2013-4-9,43,31,23,28,25,22,95,80,48,0.00,40.00,6,2,15,0.32
2013-4-10,49,34,28,38,31,20,99,87,66,0.00,40.00,12,6,28,0.95
2013-4-11,40,30,24,27,23,19,98,76,48,0.00,40.00,5,2,14,0.04
2013-4-12,46,33,22,32,20,10,98,65,23,0.00,40.00,11,5,27,0.03
2013-4-13,32,24,19,32,22,17,98,91,82,0.00,40.00,10,6,25,0.00
2013-4-14,34,23,18,28,19,16,93,85,55,0.00,40.00,7,3,18,0.00
2013-4-15,34,23,16,22,19,13,94,84,57,0.00,40.00,5,2,16,0.00
2013-4-16,30,21,14,20,15,11,92,78,57,0.00,40.00,6,3,16,0.00
2013-4-17,39,25,15,15,10,4,87,56,26,0.00,40.00,5,2,15,0.00
2013-4-18,41,30,23,32,22,6,98,74,47,0.00,40.00,5,2,11,0.00
2013-4-19,34,33,32,34,32,32,98,98,98,0.00,40.00,7,5,14,0.04
2013-4-20,37,32,28,36,31,28,98,97,94,0.00,40.00,6,3,12,0.20
2013-4-21,40,31,25,34,29,24,98,94,73,0.00,40.00,7,4,18,0.12
2013-4-22,40,29,22,24,18,11,95,65,34,0.00,40.00,5,3,16,0.08
2013-4-23,46,32,20,19,10,-4,66,42,17,0.00,40.00,5,2,12,0.14
2013-4-24,54,39,27,22,16,11,54,40,22,0.00,40.00,8,4,13,0.81
2013-4-25,56,44,33,27,20,13,56,39,28,0.00,40.00,7,4,16,0.15
2013-4-26,60,47,35,33,27,20,79,49,28,0.00,40.00,5,2,14,0.02
2013-4-27,55,45,37,28,22,18,60,41,25,0.00,40.00,10,5,24,0.00
2013-4-28,49,38,32,33,29,23,98,72,45,0.00,40.00,7,5,17,0.00
2013-4-29,37,33,24,34,26,15,98,76,42,0.00,40.00,13,9,32,0.19
2013-4-30,32,25,20,22,17,14,92,74,48,0.00,40.00,5,2,15,0.01
2013-5-1,47,33,20,16,13,8,73,46,23,0.00,40.00,3,1,12,0.02
2013-5-2,58,45,32,19,11,4,40,25,17,0.00,40.00,7,3,16,0.01
2013-5-3,54,46,38,30,22,7,70,41,24,0.00,40.00,6,3,19,0.00
2013-5-4,52,41,33,31,28,23,84,60,39,0.00,40.00,9,6,22,0.00
2013-5-5,60,48,39,33,27,20,63,44,30,0.00,40.00,5,2,18,0.01
2013-5-6,69,55,47,32,27,22,56,35,22,0.00,40.00,6,1,11,0.01
2013-5-7,65,55,47,32,26,21,56,34,25,0.00,40.00,6,3,19,0.00
2013-5-8,66,56,47,33,30,25,57,38,26,0.00,40.00,6,2,13,0.00
2013-5-9,69,58,50,41,33,28,49,39,24,0.00,40.00,6,2,10,0.00
2013-5-10,72,60,51,34,26,-100,47,31,13,0.00,40.00,4,1,13,0.00
2013-5-11,74,62,54,39,30,-100,41,32,25,0.00,40.00,5,2,14,0.00
2013-5-12,70,61,48,48,39,31,94,47,31,0.00,40.00,9,5,15,0.00
2013-5-13,64,49,36,50,43,35,98,84,49,0.00,40.00,11,4,20,0.31
2013-5-14,56,41,31,35,30,16,98,70,23,0.00,40.00,5,1,12,0.01
2013-5-15,57,44,35,35,27,21,90,54,33,0.00,40.00,5,1,13,0.00
2013-5-16,52,38,34,36,19,-100,98,76,48,0.00,40.00,2,0,8,0.00
2013-5-17,44,38,34,39,32,-100,98,89,72,0.00,40.00,4,1,10,0.13
2013-5-18,47,37,32,35,32,27,98,85,48,0.00,40.00,5,1,12,0.11
2013-5-19,41,35,32,37,33,32,98,93,81,0.00,40.00,5,0,12,0.10
2013-5-20,60,47,34,39,33,25,93,62,34,0.00,40.00,9,2,20,0.01
2013-5-21,55,44,30,39,29,22,98,63,33,0.00,40.00,17,8,40,0.15
2013-5-22,38,28,23,31,25,21,98,88,72,0.00,40.00,7,4,14,0.29
2013-5-23,42,33,24,31,26,21,93,76,56,0.00,40.00,6,0,11,0.06
2013-5-24,43,33,29,34,29,21,97,85,63,0.00,40.00,8,3,15,0.44
2013-5-25,53,40,30,35,29,22,91,66,46,0.00,40.00,3,1,12,0.14
2013-5-26,52,40,35,40,33,23,98,78,52,0.00,40.00,8,2,18,0.08
2013-5-27,47,38,32,38,34,29,98,87,57,0.00,40.00,10,4,23,0.32
2013-5-28,46,37,32,39,35,30,99,91,75,0.00,40.00,4,1,12,0.45
2013-5-29,39,35,32,39,33,29,99,91,72,0.00,40.00,12,5,20,0.71
2013-5-30,43,36,32,38,32,27,99,86,63,0.00,40.00,5,2,14,0.21
2013-5-31,57,42,30,32,28,24,94,62,30,0.00,40.00,3,1,12,0.11
2013-6-1,63,50,40,37,30,20,68,46,28,0.00,40.00,4,2,11,0.00
2013-6-2,52,44,37,39,34,30,86,69,43,0.00,40.00,7,2,17,0.00
2013-6-3,59,47,35,36,32,27,92,61,32,0.00,40.00,6,2,14,0.00
2013-6-4,63,52,39,39,33,29,73,51,31,0.00,40.00,4,2,13,0.00
2013-6-5,70,58,46,39,34,26,59,42,20,0.00,40.00,5,2,14,0.00
2013-6-6,74,62,52,45,38,31,57,42,28,0.00,40.00,5,2,11,0.00
2013-6-7,67,57,46,46,37,26,66,48,28,0.00,40.00,8,4,20,0.00
2013-6-8,70,55,40,38,30,14,82,44,17,0.00,40.00,6,3,15,0.00
2013-6-9,71,55,43,42,33,16,74,46,25,0.00,40.00,6,4,15,0.00
2013-6-10,69,56,44,33,22,5,41,27,15,0.00,40.00,4,1,14,0.00
2013-6-11,59,48,36,38,27,13,73,45,26,0.00,40.00,6,2,12,0.00
2013-6-12,54,41,32,35,31,27,86,67,44,0.00,40.00,4,2,15,0.00
2013-6-13,53,40,32,35,30,23,92,69,44,0.00,40.00,6,3,15,0.00
2013-6-14,59,42,32,34,30,25,98,68,29,0.00,40.00,6,2,13,0.00
2013-6-15,70,55,43,30,26,24,50,35,19,0.00,40.00,5,2,13,0.00
2013-6-16,76,60,52,41,29,20,50,32,13,0.00,40.00,6,3,14,0.00
2013-6-17,74,57,45,41,37,30,67,50,24,0.00,40.00,9,2,20,0.00
2013-6-18,57,46,39,45,41,37,99,83,63,0.00,40.00,6,2,30,0.13
2013-6-19,41,35,32,41,35,32,99,99,98,0.00,40.00,7,2,15,0.39
2013-6-20,47,35,32,37,34,32,99,95,65,0.00,40.00,8,6,17,1.04
2013-6-21,50,44,40,40,37,35,90,77,65,0.00,40.00,4,2,9,0.08
2013-6-22,59,49,35,40,37,32,90,64,47,0.00,40.00,4,1,11,0.01
2013-6-23,61,52,45,45,37,32,79,58,39,0.00,40.00,9,4,17,0.01
2013-6-24,52,46,42,48,44,41,99,94,74,0.00,40.00,9,4,19,0.93
2013-6-25,48,44,41,45,42,40,99,92,86,0.00,40.00,15,9,29,0.74
2013-6-26,57,50,44,50,46,42,99,89,67,0.00,40.00,10,5,18,0.22
2013-6-27,75,59,47,54,48,42,99,68,39,0.00,40.00,9,4,18,0.04
2013-6-28,81,68,58,57,51,47,79,56,40,0.00,40.00,4,1,14,0.00
2013-6-29,78,67,58,58,52,42,97,60,41,0.00,40.00,11,3,20,0.02
2013-6-30,84,69,57,57,53,48,97,59,37,0.00,40.00,5,2,10,0.01
2013-7-1,91,78,68,59,46,30,64,33,21,0.00,40.00,7,3,17,0.00
2013-7-2,87,74,66,59,50,42,66,45,25,0.00,40.00,5,1,13,0.00
2013-7-3,79,69,59,49,43,31,53,40,30,0.00,40.00,5,2,16,0.00
2013-7-4,72,63,53,35,30,22,48,30,19,0.00,40.00,6,3,11,0.00
2013-7-5,69,56,48,37,32,23,52,40,19,0.00,40.00,5,2,16,0.00
2013-7-6,71,54,44,43,32,20,62,44,23,0.00,40.00,4,2,12,0.00
2013-7-7,74,64,52,43,38,29,59,39,29,0.00,40.00,5,2,13,0.00
2013-7-8,73,60,52,37,34,28,50,38,21,0.00,40.00,5,2,15,0.00
2013-7-9,80,66,54,39,34,24,43,31,14,0.00,40.00,4,2,13,0.00
2013-7-10,82,66,60,46,31,-100,36,30,20,0.00,40.00,6,4,14,0.00
2013-7-11,69,61,53,35,29,20,37,29,23,0.00,40.00,5,2,13,0.00
2013-7-12,70,58,45,34,24,13,33,27,20,0.00,40.00,10,4,18,0.00
2013-7-13,69,53,39,35,26,17,56,37,20,0.00,40.00,4,1,11,0.00
2013-7-14,77,62,50,37,32,25,50,33,22,0.00,40.00,6,2,18,0.00
2013-7-15,78,65,56,37,30,22,34,27,20,0.00,40.00,3,1,13,0.00
2013-7-16,82,71,60,47,42,40,55,36,25,0.00,40.00,5,3,13,0.00
2013-7-17,78,65,54,50,41,31,77,43,26,0.00,40.00,5,4,13,0.01
2013-7-18,81,68,57,34,32,29,37,27,17,0.00,40.00,5,2,14,0.00
2013-7-19,82,68,60,39,34,28,36,28,18,0.00,40.00,3,1,10,0.00
2013-7-20,83,65,58,36,26,-100,33,25,14,0.00,40.00,5,1,12,0.00
2013-7-21,83,66,57,28,23,12,29,20,8,0.00,40.00,5,1,13,0.00
2013-7-22,80,65,55,30,26,22,33,23,14,0.00,40.00,5,2,14,0.00
2013-7-23,83,70,59,29,24,15,27,19,8,0.00,40.00,5,1,11,0.00
2013-7-24,85,75,64,37,31,21,24,20,14,0.00,40.00,4,1,11,0.00
2013-7-25,84,75,62,33,27,15,20,17,14,0.00,40.00,5,3,13,0.00
2013-7-26,84,73,62,31,24,9,25,16,10,0.00,40.00,5,2,12,0.00
2013-7-27,76,64,55,35,27,14,46,26,14,0.00,40.00,5,2,15,0.00
2013-7-28,72,59,50,28,22,16,35,25,15,0.00,40.00,5,2,11,0.00
2013-7-29,76,58,49,28,23,17,34,27,12,0.00,40.00,5,1,11,0.00
2013-7-30,77,64,55,34,30,25,35,28,19,0.00,40.00,4,1,10,0.00
2013-7-31,73,64,56,40,31,24,39,29,23,0.00,40.00,6,2,12,0.00
2013-8-1,67,52,43,45,38,31,94,62,38,0.00,40.00,7,2,17,0.39
2013-8-2,64,49,42,47,43,39,100,81,47,0.00,40.00,6,3,11,0.27
2013-8-3,69,55,44,43,38,29,79,56,26,0.00,40.00,5,1,11,0.00
2013-8-4,76,62,51,42,35,30,67,39,22,0.00,40.00,5,2,13,0.00
2013-8-5,78,64,57,43,35,26,50,35,26,0.00,40.00,4,1,12,0.00
2013-8-6,81,65,55,40,34,29,49,34,18,0.00,40.00,5,1,12,0.00
2013-8-7,81,67,59,35,29,20,39,25,15,0.00,40.00,5,2,15,0.00
2013-8-8,78,66,55,36,31,23,40,28,20,0.00,40.00,6,3,16,0.00
2013-8-9,82,64,57,44,37,33,58,37,24,0.00,40.00,8,2,16,0.34
2013-8-10,73,62,55,47,43,33,64,50,31,0.00,40.00,7,3,17,0.09
2013-8-11,76,61,53,47,41,33,65,50,21,0.00,40.00,7,3,17,0.02
2013-8-12,76,61,51,49,40,35,82,48,35,0.00,40.00,10,2,25,0.01
2013-8-13,78,64,51,46,36,-100,82,39,21,0.00,40.00,4,2,16,0.01
2013-8-14,83,69,61,44,36,27,43,31,16,0.00,40.00,8,3,17,0.00
2013-8-15,84,63,57,43,31,-100,49,35,18,0.00,40.00,7,2,19,0.00
2013-8-16,80,60,53,47,38,-100,63,49,21,0.00,40.00,7,3,15,0.00
2013-8-17,78,62,53,47,42,-100,65,50,28,0.00,40.00,5,2,13,0.00
2013-8-18,77,62,51,43,38,34,65,45,24,0.00,40.00,5,2,11,0.00
2013-8-19,79,61,54,41,32,-100,53,38,24,0.00,40.00,6,2,13,0.00
2013-8-20,75,61,51,41,37,30,61,44,21,0.00,40.00,4,1,11,0.00
2013-8-21,79,64,55,38,31,24,50,31,17,0.00,40.00,4,1,10,0.00
2013-8-22,77,65,49,49,40,28,98,44,24,0.00,40.00,8,5,31,0.22
2013-8-23,71,59,52,48,43,39,87,57,34,0.00,40.00,7,4,17,0.23
2013-8-24,77,61,51,45,39,-100,63,47,25,0.00,40.00,9,3,20,0.00
2013-8-25,72,58,49,43,39,33,73,50,30,0.00,40.00,13,7,28,0.01
2013-8-26,69,58,48,41,35,27,61,44,24,0.00,40.00,13,6,28,0.01
2013-8-27,72,57,49,41,38,32,70,51,24,0.00,40.00,8,4,16,0.00
2013-8-28,75,71,64,35,31,25,29,23,16,0.00,40.00,12,8,26,0.00
2013-8-29,78,65,52,43,38,28,69,39,18,0.00,40.00,11,6,26,0.00
2013-8-30,74,58,49,46,44,41,85,62,32,0.00,40.00,5,2,12,0.00
2013-8-31,81,65,53,44,37,-100,72,40,20,0.00,40.00,7,2,16,0.00
2013-9-1,80,70,66,35,30,23,31,23,14,0.00,40.00,9,6,18,0.00
2013-9-2,68,61,54,52,45,35,93,58,30,0.00,40.00,14,6,28,0.12
2013-9-3,69,61,52,56,48,42,97,64,50,0.00,40.00,14,9,28,0.22
2013-9-4,74,63,57,55,47,39,89,56,43,0.00,40.00,14,8,29,0.01
2013-9-5,69,58,47,53,47,39,99,68,46,0.00,40.00,13,7,34,0.48
2013-9-6,61,50,45,46,43,38,100,78,53,0.00,40.00,8,3,15,0.02
2013-9-7,69,52,41,45,40,-100,100,69,37,0.00,40.00,4,2,12,0.00
2013-9-8,63,52,46,44,40,34,81,63,47,0.00,40.00,4,1,11,0.00
2013-9-9,69,57,46,45,41,39,81,59,36,0.00,40.00,4,1,13,0.00
2013-9-10,75,61,52,44,36,29,54,40,25,0.00,40.00,4,2,11,0.00
2013-9-11,80,66,59,37,35,29,43,32,20,0.00,40.00,4,1,12,0.00
2013-9-12,77,67,61,49,40,31,52,39,29,0.00,40.00,7,2,17,0.00
2013-9-13,76,64,56,49,45,42,69,52,30,0.00,40.00,4,2,12,0.00
2013-9-14,78,64,57,47,41,-100,54,45,33,0.00,40.00,6,1,13,0.00
2013-9-15,73,63,52,48,43,37,85,50,36,0.00,40.00,19,9,32,0.09
2013-9-16,66,54,45,46,42,39,90,66,40,0.00,40.00,9,4,22,0.09
2013-9-17,55,42,34,44,40,34,100,90,67,0.00,40.00,9,3,16,0.32
2013-9-18,39,35,34,35,34,30,100,94,76,0.00,40.00,7,4,16,0.33
2013-9-19,61,47,36,35,29,13,80,53,22,0.00,40.00,11,4,24,0.01
2013-9-20,65,56,49,27,21,13,40,25,20,0.00,40.00,15,11,33,0.00
2013-9-21,54,44,40,39,33,-100,97,70,36,0.00,40.00,9,4,25,0.13
2013-9-22,50,40,36,39,37,33,100,88,59,0.00,40.00,8,3,19,0.36
2013-9-23,51,41,33,39,35,30,100,80,58,0.00,40.00,8,4,20,0.46
2013-9-24,42,36,31,40,35,30,100,95,67,0.00,40.00,2,0,12,0.24
2013-9-25,35,32,30,33,32,30,100,98,84,0.00,40.00,3,1,11,0.05
2013-9-26,35,33,32,35,32,31,100,98,90,0.00,40.00,4,2,16,0.07
2013-9-27,38,33,31,36,32,31,100,97,78,0.00,40.00,8,4,17,0.54
2013-9-28,47,40,35,40,36,-100,100,91,63,0.00,40.00,19,13,36,1.39
2013-9-29,46,35,32,39,34,32,100,96,59,0.00,40.00,20,10,40,1.01
2013-9-30,41,35,30,40,32,29,100,87,74,0.00,40.00,19,8,41,1.74
2013-10-1,31,29,27,31,29,27,100,100,98,0.00,40.00,7,2,14,0.08
2013-10-2,44,30,23,34,26,17,100,85,43,0.00,40.00,4,0,8,0.19
2013-10-3,33,30,28,33,30,28,100,100,98,0.00,40.00,4,2,13,0.05
2013-10-4,46,35,27,29,24,17,100,67,39,0.00,40.00,4,1,13,0.00
2013-10-5,57,43,34,28,21,1,63,43,20,0.00,40.00,5,2,10,0.00
2013-10-6,62,52,46,19,12,-1,31,20,11,0.00,40.00,11,7,23,0.00
2013-10-7,52,42,31,34,24,15,100,54,23,0.00,40.00,11,6,20,0.00
2013-10-8,31,30,28,31,30,28,100,100,100,0.00,40.00,6,3,15,0.00
2013-10-9,41,32,28,36,31,28,100,96,78,0.00,40.00,5,2,11,0.13
2013-10-10,45,34,30,32,28,24,100,78,57,0.00,40.00,5,2,11,0.28
2013-10-11,41,34,31,30,26,22,93,72,53,0.00,40.00,3,0,9,0.12
2013-10-12,36,32,32,33,28,-100,100,85,71,0.00,40.00,5,2,10,0.01
2013-10-13,36,32,28,32,31,27,100,96,81,0.00,40.00,4,1,15,0.00
2013-10-14,44,32,26,28,25,23,94,78,53,0.00,40.00,7,2,15,0.22
2013-10-15,51,36,30,31,22,15,75,58,37,0.00,40.00,7,2,15,0.26
2013-10-16,50,40,34,30,23,19,83,53,35,0.00,40.00,6,3,16,0.01
2013-10-17,45,36,30,31,28,22,91,73,52,0.00,40.00,4,1,12,0.00
2013-10-18,52,39,32,31,21,0,81,51,17,0.00,40.00,3,0,7,0.00
2013-10-19,54,45,41,22,15,-100,40,32,20,0.00,40.00,5,2,10,0.00
2013-10-20,55,44,38,33,28,15,72,54,32,0.00,40.00,5,2,12,0.00
2013-10-21,60,46,39,38,34,30,74,62,40,0.00,40.00,4,1,14,0.00
2013-10-22,62,49,46,39,34,29,62,55,39,0.00,40.00,0,0,9,0.00
2013-10-23,58,49,43,37,34,29,62,56,45,0.00,40.00,0,0,6,0.00
2013-10-24,61,51,45,34,26,20,59,38,25,0.00,40.00,7,2,12,0.00
2013-10-25,61,49,44,26,23,19,44,36,23,0.00,40.00,2,0,10,0.00
2013-10-26,61,49,44,28,22,-100,44,36,24,0.00,40.00,7,2,12,0.00
2013-10-27,47,40,32,32,25,17,100,60,34,0.00,40.00,11,5,20,0.00
2013-10-28,33,29,23,33,24,-100,100,85,69,0.00,40.00,8,6,21,0.00
2013-10-29,40,29,23,27,22,17,95,75,50,0.00,40.00,5,2,10,0.00
2013-10-30,39,30,23,23,21,18,93,70,45,0.00,40.00,6,4,13,0.00
2013-10-31,36,34,28,36,32,18,100,93,63,0.00,40.00,7,4,20,0.04
2013-11-1,45,36,30,36,32,27,100,85,68,0.00,40.00,9,3,20,0.02
2013-11-2,39,32,22,35,28,-100,100,88,68,0.00,40.00,19,12,36,0.14
2013-11-3,23,22,20,22,20,19,95,95,92,0.00,40.00,10,6,22,0.02
2013-11-4,26,18,12,25,16,8,95,91,83,0.00,40.00,6,2,15,0.00
2013-11-5,34,27,12,32,26,9,100,95,73,0.00,40.00,8,4,17,0.00
2013-11-6,36,32,30,35,32,30,100,99,91,0.00,40.00,7,4,14,0.00
2013-11-7,39,33,26,37,32,25,100,97,91,0.00,40.00,17,12,33,1.41
2013-11-8,31,28,26,29,26,24,100,95,83,0.00,40.00,8,4,18,0.06
2013-11-9,40,34,27,32,24,-100,91,71,54,0.00,40.00,9,5,17,0.22
2013-11-10,55,44,38,32,28,25,76,55,39,0.00,40.00,11,6,19,0.36
2013-11-11,55,46,41,27,19,0,54,36,13,0.00,40.00,16,6,28,0.01
2013-11-12,52,44,36,38,26,7,100,60,17,0.00,40.00,17,9,44,0.20
2013-11-13,40,34,30,37,31,17,100,88,54,0.00,40.00,5,2,11,0.01
2013-11-14,39,31,25,25,17,1,99,62,25,0.00,40.00,7,3,12,0.00
2013-11-15,26,24,22,25,22,20,99,94,81,0.00,40.00,10,5,22,0.00
2013-11-16,26,22,21,26,21,-100,99,95,95,0.00,40.00,11,7,26,0.00
2013-11-17,29,26,23,29,25,22,100,98,93,0.00,40.00,10,6,21,0.00
2013-11-18,36,32,27,32,23,19,100,71,58,0.00,40.00,12,10,25,0.01
2013-11-19,34,33,32,34,33,32,100,100,99,0.00,40.00,12,9,26,0.01
2013-11-20,32,19,8,32,12,-9,100,76,43,0.00,40.00,5,2,12,0.00
2013-11-21,30,18,8,12,-4,-12,56,40,18,0.00,40.00,5,2,11,0.00
2013-11-22,38,30,24,11,4,-9,46,34,22,0.00,40.00,3,1,7,0.02
2013-11-23,43,34,32,15,6,-100,41,33,19,0.00,40.00,1,0,6,0.18
2013-11-24,43,38,35,9,1,-7,24,20,14,0.00,40.00,3,0,6,0.14
2013-11-25,52,43,37,19,10,-16,38,27,9,0.00,40.00,6,4,16,0.33
2013-11-26,48,42,37,14,11,5,37,28,22,0.00,40.00,11,8,23,0.09
2013-11-27,47,38,35,16,12,9,40,34,29,0.00,40.00,6,4,13,0.07
2013-11-28,51,39,33,22,14,9,48,35,27,0.00,40.00,3,0,8,0.00
2013-11-29,45,35,30,32,21,13,100,61,35,0.00,40.00,6,3,13,0.00
2013-11-30,32,31,30,32,29,-100,100,97,91,0.00,40.00,6,4,14,0.00
2013-12-1,37,34,31,37,34,31,100,100,100,0.00,40.00,16,10,32,1.63
2013-12-2,34,23,14,34,22,12,100,97,92,0.00,40.00,13,7,29,0.71
2013-12-3,14,10,4,12,8,0,92,89,84,0.00,40.00,1,0,7,0.01
2013-12-4,16,2,-4,14,-2,-9,90,82,79,0.00,40.00,0,0,0,0.00
2013-12-5,18,0,-6,14,-5,-12,83,80,76,0.00,40.00,1,0,8,0.00
2013-12-6,14,4,0,6,-1,-4,84,80,71,0.00,40.00,6,2,15,0.00
2013-12-7,9,0,-8,2,-6,-100,84,77,68,0.00,40.00,1,0,9,0.00
2013-12-8,6,0,-6,2,-7,-14,85,72,63,0.00,40.00,5,1,14,0.00
2013-12-9,24,15,6,15,10,2,90,81,66,0.00,40.00,9,5,19,0.00
2013-12-10,20,17,12,19,16,9,94,92,85,0.00,40.00,9,2,21,0.00
2013-12-11,32,23,17,22,19,15,94,83,64,0.00,40.00,8,3,19,0.00
2013-12-12,37,29,24,25,17,14,98,62,45,0.00,40.00,11,6,31,0.00
2013-12-13,29,27,25,29,27,25,100,100,98,0.00,40.00,6,2,14,0.00
2013-12-14,36,31,27,29,21,-100,100,73,36,0.00,40.00,10,4,18,0.00
2013-12-15,37,34,32,31,19,5,93,57,29,0.00,40.00,9,8,22,0.00
2013-12-16,45,35,31,19,10,2,59,35,21,0.00,40.00,7,5,14,0.00
2013-12-17,52,42,35,16,12,8,43,30,23,0.00,40.00,12,8,21,0.05
2013-12-18,35,28,20,26,22,14,95,77,43,0.00,40.00,9,6,18,0.01
2013-12-19,21,15,10,19,7,-14,94,71,26,0.00,40.00,3,1,12,0.00
2013-12-20,27,23,13,27,16,-29,100,79,10,0.00,40.00,10,6,27,0.00
2013-12-21,29,26,25,29,25,-100,100,99,99,0.00,40.00,5,2,16,0.00
2013-12-22,31,28,25,31,28,25,100,100,99,0.00,40.00,2,0,6,0.00
2013-12-23,33,31,22,33,31,22,100,100,98,0.00,40.00,11,3,24,0.00
2013-12-24,31,23,15,30,20,11,99,87,57,0.00,40.00,4,2,12,0.00
2013-12-25,46,34,24,18,10,3,57,38,24,0.00,40.00,10,5,16,0.09
2013-12-26,49,38,33,29,22,9,77,53,28,0.00,40.00,8,6,16,0.28
2013-12-27,45,37,29,29,14,9,98,41,25,0.00,40.00,12,6,19,0.01
2013-12-28,33,25,20,29,20,-100,100,85,58,0.00,40.00,7,1,15,0.01
2013-12-29,34,28,22,24,8,-11,81,47,19,0.00,40.00,6,3,12,0.00
2013-12-30,42,33,29,33,30,24,100,90,61,0.00,40.00,7,4,16,0.09
2013-12-31,33,30,26,33,29,26,100,98,83,0.00,40.00,7,4,19,0.01
2014-1-1,39,28,21,31,22,14,100,80,46,0.00,40.00,4,1,8,0.06
2014-1-2,46,36,32,29,20,14,68,54,32,0.00,40.00,13,7,32,0.33